Regional Weather Roundup
Issued by NWS Grand Forks, ND

Home | Current Version | Previous Version | Graphics & Text | Print | Product List | Glossary On
Versions: 1 2 3 4 5 6 7 8 9 10 11 12 13 14 15 16 17 18 19 20 21 22 23 24 25 26 27 28 29 30 31 32 33 34 35 36 37 38 39 40 41 42 43 44 45 46 47 48 49 50
000
ASUS43 KFGF 300031
RWRFGF
PRAIRIE TO PINES  WEATHER ROUNDUP
NATIONAL WEATHER SERVICE EASTERN NORTH DAKOTA/GRAND FORKS ND
700 PM CDT FRI JUL 29 2016

 **SATELLITE DATA USED TO AUGMENT SKY COVER AT AUTOMATED STATIONS**
 *****  WEATHER ACROSS EASTERN NORTH DAKOTA  *****

CITY           SKY/WX    TMP DP  RH WIND       PRES   REMARKS
GRAND FORKS    MOSUNNY   81  55  40 CALM      29.99F
6HR MIN TEMP:  76; 6HR MAX TEMP:  81;

GRAND FRKS AFB MOSUNNY   77  56  47 SW3       30.00F
DEVILS LAKE    MOSUNNY   76  60  57 SE8       30.00F
6HR MIN TEMP:  72; 6HR MAX TEMP:  77;

FARGO          SUNNY     80  61  52 CALM      29.99F
WAHPETON ARPT  MOCLDY    73  59  60 E9        30.01S
$$

 ***** WEATHER ACROSS CENTRAL AND WESTERN NORTH DAKOTA  *****

CITY           SKY/WX    TMP DP  RH WIND       PRES   REMARKS
BISMARCK       MOSUNNY   80  62  54 S13       29.98F
6HR MIN TEMP:  76; 6HR MAX TEMP:  82;

MINOT          SUNNY     82  57  42 SW9       29.97F
6HR MIN TEMP:  72; 6HR MAX TEMP:  84; 6HR PCP:  0.01;

JAMESTOWN      SUNNY     76  62  62 S10       30.00F
6HR MIN TEMP:  68; 6HR MAX TEMP:  78; 6HR PCP:  0.02;

MINOT AFB      PTSUNNY   80  58  47 VRB6      29.95F
GARRISON         N/A     78  61  55 S3        29.98F
WILLISTON      PTSUNNY   83  48  29 NE5       29.97F
6HR MIN TEMP:  77; 6HR MAX TEMP:  83;

DICKINSON      MOSUNNY   76  50  40 SE5       29.97F
6HR MIN TEMP:  72; 6HR MAX TEMP:  80;

HETTINGER      MOSUNNY   81  49  32 S7        29.99F
6HR MIN TEMP:  76; 6HR MAX TEMP:  86;

$$

 *****  OTHER AIRPORT OBSERVATIONS IN OUR AREA  *****

CITY           SKY/WX    TMP DP  RH WIND       PRES   REMARKS
WALHALLA       FAIR      77  73  88 CALM      29.98S
GRAFTON AIRPOR FAIR      77  55  47 W6        30.00F
VALLEY CITY AR FAIR      72  66  83 CALM      30.03F
CANDO          CLOUDY    73  61  64 SE6       30.01F
CAVALIER APRT  FAIR      77  55  47 S5        29.98F
GWINNER        FAIR      79  63  57 CALM      30.01F
SHEYENNE NWR     N/A     78  61  54 W6        29.95S
ROLLA          FAIR      73  59  60 S8        30.01S
 ***** THE ABOVE OBSERVATIONS ARE NON NWS ARE NOT QUALITY
       CONTROLLED AND MAY MIS-REPORT RAIN FOR SNOW...
$$

  *****  WEATHER ACROSS NORTHERN MINNESOTA  *****

CITY           SKY/WX    TMP DP  RH WIND       PRES   REMARKS
FLAG ISLAND    SUNNY     75  54  46 SE7       29.99F
WARROAD        MOSUNNY   75  63  64 E5        30.01S
ROSEAU         MOSUNNY   79  63  57 E3        30.00S
HALLOCK        SUNNY     79  55  44 SW3       29.98F
THF RVR FALLS  MOSUNNY   76  53  44 CALM      30.02F
6HR MIN TEMP:  74; 6HR MAX TEMP:  77;

BAUDETTE       PTSUNNY   78  55  44 S6        30.01S
6HR MIN TEMP:  75; 6HR MAX TEMP:  81;

WASKISH        CLOUDY    75  59  57 CALM      30.01F
CROOKSTON      MOSUNNY   75  54  46 CALM      30.00F
STEPHEN NDAWN    N/A     79  55  44 S2          N/A
GREENBUSH NDAW   N/A     79  55  44 SW5         N/A
$$
  *****  WEATHER ACROSS CENTRAL AND WEST MINNESOTA  *****

CITY           SKY/WX    TMP DP  RH WIND       PRES   REMARKS
FOSSTON        MOSUNNY   73  52  46 CALM      30.02F
BEMIDJI        CLOUDY    75  59  57 SE6       30.02S
PARK RAPIDS    CLOUDY    75  60  59 SE8       30.03S
6HR MIN TEMP:  75; 6HR MAX TEMP:  79;

ELBOW LAKE     CLOUDY    69  63  81 N5        30.04S
WADENA         CLOUDY    72  63  73 CALM      30.03F
DETROIT LAKES  MOSUNNY   75  59  57 SW6       30.04S
MOORHEAD       MOSUNNY   77  57  50 CALM      30.01S
FERGUS FALLS   CLOUDY    70  63  78 SW6       30.03F
MORRIS MN      SUNNY     79  57  47 SE5       30.02S
STAPLES        CLOUDY    73  57  56 W3        30.04S
$$
  *****  WEATHER ELSEWHERE ACROSS MINNESOTA  *****

CITY           SKY/WX    TMP DP  RH WIND       PRES   REMARKS
DULUTH         MOSUNNY   68  51  54 SE10      30.07S
6HR MIN TEMP:  68; 6HR MAX TEMP:  74;

INTRNTL FALLS  PTSUNNY   75  58  55 SE5       30.02F
6HR MIN TEMP:  73; 6HR MAX TEMP:  78;

ELY            MOSUNNY   73  52  46 S3        30.05S
CLOQUET        SUNNY     70  52  52 E5        30.07S
WHEATON        SUNNY     79  63  57 S3        30.03S
BRAINERD       MOSUNNY   76  54  46 NE5       30.04F
6HR MIN TEMP:  73; 6HR MAX TEMP:  78;

HIBBING        SUNNY     73  51  46 SE6       30.04F
6HR MIN TEMP:  70; 6HR MAX TEMP:  77;

ALEXANDRIA     PTSUNNY   75  55  49 W3        30.06F
6HR MIN TEMP:  73; 6HR MAX TEMP:  77;

SAINT CLOUD    SUNNY     76  55  48 NE3       30.03F
6HR MIN TEMP:  74; 6HR MAX TEMP:  78;

MINNEAPOLIS    MOSUNNY   77  52  41 NE8       30.02F
6HR MIN TEMP:  75; 6HR MAX TEMP:  79;

$$

  *****  WEATHER ACROSS SOUTH DAKOTA  *****

CITY           SKY/WX    TMP DP  RH WIND       PRES   REMARKS
SIOUX FALLS    MOSUNNY   77  57  50 E7        30.03S
6HR MIN TEMP:  74; 6HR MAX TEMP:  80;

BROOKINGS      SUNNY     76  56  49 VRB5      30.04F
WATERTOWN      MOSUNNY   77  55  46 S8        30.03F
6HR MIN TEMP:  75; 6HR MAX TEMP:  80;

HURON          MOSUNNY   78  53  41 SE8       30.00S
6HR MIN TEMP:  78; 6HR MAX TEMP:  84;

SISSETON         N/A     78  61  55 S6        30.00F
ABERDEEN       NOT AVBL
MITCHELL       SUNNY     81  52  36 E8        30.02S
PIERRE         MOSUNNY   81  54  39 S13       29.97F
6HR MIN TEMP:  77; 6HR MAX TEMP:  84;

MOBRIDGE       PTSUNNY   84  52  33 SE10      29.96F
RAPID CITY     PTSUNNY   76  57  51 SW9       30.03S
6HR MIN TEMP:  71; 6HR MAX TEMP:  83;

$$

  *****  SOME WEATHER IN NEARBY STATES *****

CITY           SKY/WX    TMP DP  RH WIND       PRES   REMARKS
GLASGOW MT     MOSUNNY   81  56  42 SE7       29.96F
6HR MIN TEMP:  71; 6HR MAX TEMP:  82; 6HR PCP:  0.02;

GREAT FALLS MT SUNNY     86  45  23 E8        29.98F
6HR MIN TEMP:  76; 6HR MAX TEMP:  88;

CHEYENNE WY    PTSUNNY   69  55  60 SE12      30.15R
6HR MIN TEMP:  63; 6HR MAX TEMP:  80; 6HR PCP:  0.30;

SCOTTSBLUFF NE LGT RAIN  66  61  84 SE17      30.04F
6HR MIN TEMP:  65; 6HR MAX TEMP:  87; 6HR PCP:  0.26;

OMAHA NE       MOSUNNY   79  63  57 NE10      29.99F
6HR MIN TEMP:  78; 6HR MAX TEMP:  83;

DES MOINES IA  LGT RAIN  71  64  78 N6        29.99S
6HR MIN TEMP:  70; 6HR MAX TEMP:  74; 6HR PCP: TRACE;

DAVENPORT IA   MOSUNNY   75  68  78 N7        29.95R
6HR MIN TEMP:  75; 6HR MAX TEMP:  79;

CHICAGO IL     PTSUNNY   73  68  84 N14       29.93S
6HR MIN TEMP:  72; 6HR MAX TEMP:  79; 6HR PCP:  0.11;

EAU CLAIRE WI  MOSUNNY   76  60  57 E6        30.01S
6HR MIN TEMP:  75; 6HR MAX TEMP:  80;

LA CROSSE WI   LGT RAIN  71  66  84 E5        30.00R
6HR MIN TEMP:  71; 6HR MAX TEMP:  77; 6HR PCP:  0.03;

$$

  *****  SOME NATIONAL WEATHER *****

CITY           SKY/WX    TMP DP  RH WIND       PRES   REMARKS
LA GUARDIA NY  PTCLDY    81  68  64 S10       29.87R
6HR MIN TEMP:  80; 6HR MAX TEMP:  85;

RALEIGH NC     PTCLDY    86  69  56 CALM      29.93S HX  90
6HR MIN TEMP:  86; 6HR MAX TEMP:  92;

ATLANTA GA     MOCLDY    86  68  54 W13       29.99S
6HR MIN TEMP:  86; 6HR MAX TEMP:  93;

NEW ORLEANS LA PTSUNNY   81  73  76 S9        29.98F
6HR MIN TEMP:  80; 6HR MAX TEMP:  95; 6HR PCP: TRACE;

OKLAHOMA CITY  MOSUNNY   85  64  49 NE9       29.96F
6HR MIN TEMP:  78; 6HR MAX TEMP:  87;

ALBUQUERQUE NM TSTM      69  58  67 SE8       30.22R
6HR MIN TEMP:  73; 6HR MAX TEMP:  93; 6HR PCP: TRACE;

SALT LAKE CITY MOSUNNY  101  35  10 NW10      29.94F HX  95
6HR MIN TEMP:  94; 6HR MAX TEMP: 102;

LOS ANGELES CA MOSUNNY   76  64  66 W13       29.79F
6HR MIN TEMP:  76; 6HR MAX TEMP:  79;

BOISE ID       SUNNY    100  38  11 N18       29.85F HX  95
6HR MIN TEMP:  87; 6HR MC1F1C2F2C3F3C4F4C5F5C6F6C7F7C8F8C9F9CaFaCbFbCcFcCd!


USA.gov is the U.S. government's official web portal to all federal, state and local government web resources and services.